This is the latest recevied weather packets stored in our database for station/object AD8BW. If no packets are shown the sender has not sent any weather packets the latest 10 day(s).
| Time | Temp. | Humidity | Pressure | Rain* | Wind** | Luminosity | Snow |
|---|---|---|---|---|---|---|---|
| 1777475217 | 7.22° C | 92% | 1011.3 hPa | 0 mm | - | 67 W/m² | - |
| 1777474619 | 7.22° C | 92% | 1011.3 hPa | 0 mm | - | 60 W/m² | - |
| 1777474009 | 7.22° C | 92% | 1011.4 hPa | 0 mm | - | 47 W/m² | - |
| 1777473410 | 7.22° C | 92% | 1011.5 hPa | 0 mm | - | 53 W/m² | - |
| 1777472810 | 7.22° C | 93% | 1011.5 hPa | 0 mm | - | 72 W/m² | - |
| 1777472209 | 7.22° C | 94% | 1011.5 hPa | 0 mm | - | 160 W/m² | - |
| 1777471608 | 6.67° C | 93% | 1011.8 hPa | 0 mm | - | 83 W/m² | - |
| 1777471007 | 6.67° C | 93% | 1012.1 hPa | 0 mm | - | 54 W/m² | - |
| 1777470411 | 7.22° C | 94% | 1012.2 hPa | 0 mm | - | 65 W/m² | - |
| 1777469810 | 6.67° C | 93% | 1012.1 hPa | 0 mm | - | 46 W/m² | - |
| 1777469210 | 6.67° C | 94% | 1012.3 hPa | 0 mm | - | 65 W/m² | - |
| 1777468605 | 6.67° C | 93% | 1012.2 hPa | 0 mm | - | 81 W/m² | - |
| 1777468005 | 6.67° C | 93% | 1012.4 hPa | 0.25 mm | - | 67 W/m² | - |
| 1777467406 | 6.67° C | 93% | 1012.5 hPa | 0.51 mm | - | 63 W/m² | - |
| 1777466805 | 6.67° C | 94% | 1012.6 hPa | 1.02 mm | - | 42 W/m² | - |
| 1777466203 | 6.67° C | 93% | 1012.7 hPa | 1.27 mm | - | 39 W/m² | - |
| 1777465605 | 6.67° C | 93% | 1012.6 hPa | 1.78 mm | - | 46 W/m² | - |
| 1777465001 | 6.67° C | 93% | 1012.7 hPa | 1.78 mm | - | 37 W/m² | - |
| 1777464404 | 6.67° C | 92% | 1013 hPa | 1.52 mm | - | 26 W/m² | - |
| 1777463804 | 6.67° C | 92% | 1013 hPa | 1.27 mm | - | 9 W/m² | - |
| 1777463203 | 7.22° C | 91% | 1013 hPa | 0.76 mm | - | 9 W/m² | - |
| 1777462602 | 7.22° C | 91% | 1013 hPa | 0.51 mm | - | 0 W/m² | - |
| 1777462004 | 7.22° C | 90% | 1012.9 hPa | 0 mm | - | 0 W/m² | - |
| 1777461403 | 7.78° C | 89% | 1012.8 hPa | 0 mm | - | 0 W/m² | - |
| 1777460800 | 7.78° C | 89% | 1012.6 hPa | 0 mm | - | 7 W/m² | - |
* Rain latest hour (hover to see other rain measurements)
** Current wind speed in m/s (hover to see current wind gust speed)